Location: Bailen
(14.1842°N, 120.7958°E)
Time: 17:51:41
(UTC+00:00)

Lacrosse 4 Rocket - Pass Details

Date: 12 January 2026
Orbit: 512 x 564 km, 68.0° (Epoch: 17 February)

Event Time Altitude Azimuth Distance (km) Brightness Sun altitude
Rises 21:31:35 0° 186° (S) 2,700 5.0 -12.8°
Reaches altitude 10° 21:33:53 10° 179° (S) 1,799 4.2 -12.3°
Maximum altitude 21:37:40 41° 108° (ESE) 788 2.8 -11.4°
Drops below altitude 10° 21:41:24 10° 38° (NE) 1,770 4.1 -10.6°
Sets 21:43:38 0° 30° (NNE) 2,651 5.0 -10.1°
